Time,TemperatureF,DewpointF,PressureIn,WindDirection,WindDirectionDegrees,WindSpeedMPH,WindSpeedGustMPH,Humidity,HourlyPrecipIn,Conditions,Clouds,dailyrainin,SoftwareType,DateUTC
2013-11-18 00:05:00,56.4,46.0,29.91,NW,324,4.0,4.0,68,0.00,,,0.00,Wunderground v.1.15,2013-11-18 05:05:00,
2013-11-18 00:10:00,56.1,45.7,29.92,NNW,329,3.0,9.0,68,0.00,,,0.00,Wunderground v.1.15,2013-11-18 05:10:00,
2013-11-18 00:15:00,56.0,45.6,29.92,NW,326,3.0,9.0,68,0.00,,,0.00,Wunderground v.1.15,2013-11-18 05:15:00,
2013-11-18 00:20:00,55.8,45.8,29.92,NNW,336,3.0,9.0,69,0.00,,,0.00,Wunderground v.1.15,2013-11-18 05:20:00,
2013-11-18 00:25:00,55.7,45.7,29.93,NNW,333,3.0,3.0,69,0.00,,,0.00,Wunderground v.1.15,2013-11-18 05:25:00,
2013-11-18 00:30:00,55.6,45.6,29.93,NNW,333,3.0,9.0,69,0.00,,,0.00,Wunderground v.1.15,2013-11-18 05:30:00,
2013-11-18 00:35:00,55.5,45.5,29.93,NW,317,2.0,9.0,69,0.00,,,0.00,Wunderground v.1.15,2013-11-18 05:35:00,
2013-11-18 00:40:00,55.4,45.4,29.93,NW,324,1.0,9.0,69,0.00,,,0.00,Wunderground v.1.15,2013-11-18 05:40:00,
2013-11-18 00:45:00,55.3,45.3,29.93,NW,324,1.0,1.0,69,0.00,,,0.00,Wunderground v.1.15,2013-11-18 05:45:00,
2013-11-18 00:50:00,55.4,45.4,29.93,NW,309,0.0,9.0,69,0.00,,,0.00,Wunderground v.1.15,2013-11-18 05:50:00,
2013-11-18 00:55:00,55.4,45.0,29.93,NW,309,0.0,9.0,68,0.00,,,0.00,Wunderground v.1.15,2013-11-18 05:55:00,
2013-11-18 01:05:00,55.0,45.0,29.93,NW,309,0.0,9.0,69,0.00,,,0.00,Wunderground v.1.15,2013-11-18 06:05:00,
2013-11-18 01:10:00,54.6,44.6,29.94,WNW,290,1.0,9.0,69,0.00,,,0.00,Wunderground v.1.15,2013-11-18 06:10:00,
2013-11-18 01:15:00,54.6,44.6,29.94,WNW,303,1.0,1.0,69,0.00,,,0.00,Wunderground v.1.15,2013-11-18 06:15:00,
2013-11-18 01:20:00,54.7,44.3,29.94,NW,313,1.0,3.0,68,0.00,,,0.00,Wunderground v.1.15,2013-11-18 06:20:00,
2013-11-18 01:25:00,54.7,44.0,29.94,NW,313,1.0,1.0,67,0.00,,,0.00,Wunderground v.1.15,2013-11-18 06:25:00,
2013-11-18 01:30:00,54.6,43.9,29.94,NW,313,0.0,9.0,67,0.00,,,0.00,Wunderground v.1.15,2013-11-18 06:30:00,
2013-11-18 01:40:00,54.7,44.0,29.94,NW,309,1.0,9.0,67,0.00,,,0.00,Wunderground v.1.15,2013-11-18 06:40:00,
2013-11-18 01:45:00,54.7,44.0,29.94,NW,308,1.0,1.0,67,0.00,,,0.00,Wunderground v.1.15,2013-11-18 06:45:00,
2013-11-18 01:50:00,54.4,44.1,29.95,NW,313,2.0,2.0,68,0.00,,,0.00,Wunderground v.1.15,2013-11-18 06:50:00,
2013-11-18 01:55:00,54.2,43.9,29.95,NW,306,2.0,2.0,68,0.00,,,0.00,Wunderground v.1.15,2013-11-18 06:55:00,
2013-11-18 02:05:00,53.9,43.6,29.95,NW,309,1.0,1.0,68,0.00,,,0.00,Wunderground v.1.15,2013-11-18 07:05:00,
2013-11-18 02:10:00,53.8,43.5,29.96,NW,309,0.0,3.0,68,0.00,,,0.00,Wunderground v.1.15,2013-11-18 07:10:00,
2013-11-18 02:15:00,53.9,43.6,29.96,NW,309,0.0,9.0,68,0.00,,,0.00,Wunderground v.1.15,2013-11-18 07:15:00,
2013-11-18 02:25:00,53.5,43.6,29.96,NW,309,0.0,9.0,69,0.00,,,0.00,Wunderground v.1.15,2013-11-18 07:25:00,
2013-11-18 02:30:00,53.5,43.2,29.96,NW,309,1.0,9.0,68,0.00,,,0.00,Wunderground v.1.15,2013-11-18 07:30:00,
2013-11-18 02:35:00,53.0,43.1,29.96,NW,323,1.0,9.0,69,0.00,,,0.00,Wunderground v.1.15,2013-11-18 07:35:00,
2013-11-18 02:40:00,52.6,43.1,29.96,NW,320,2.0,9.0,70,0.00,,,0.00,Wunderground v.1.15,2013-11-18 07:40:00,
2013-11-18 02:45:00,52.4,43.3,29.97,NNW,339,3.0,9.0,71,0.00,,,0.00,Wunderground v.1.15,2013-11-18 07:45:00,
2013-11-18 02:50:00,52.5,43.0,29.96,NW,325,3.0,9.0,70,0.00,,,0.00,Wunderground v.1.15,2013-11-18 07:50:00,
2013-11-18 02:55:00,52.2,42.7,29.96,NNW,331,2.0,9.0,70,0.00,,,0.00,Wunderground v.1.15,2013-11-18 07:55:00,
2013-11-18 03:05:00,52.0,42.9,29.97,NW,310,1.0,1.0,71,0.00,,,0.00,Wunderground v.1.15,2013-11-18 08:05:00,
2013-11-18 03:10:00,51.8,42.7,29.97,NW,310,0.0,2.0,71,0.00,,,0.00,Wunderground v.1.15,2013-11-18 08:10:00,
2013-11-18 03:15:00,51.6,42.9,29.97,WNW,298,1.0,9.0,72,0.00,,,0.00,Wunderground v.1.15,2013-11-18 08:15:00,
2013-11-18 03:20:00,51.5,42.8,29.97,NW,307,2.0,9.0,72,0.00,,,0.00,Wunderground v.1.15,2013-11-18 08:20:00,
2013-11-18 03:25:00,51.3,42.9,29.97,NW,322,1.0,1.0,73,0.00,,,0.00,Wunderground v.1.15,2013-11-18 08:25:00,
2013-11-18 03:30:00,51.2,42.5,29.97,NW,322,0.0,9.0,72,0.00,,,0.00,Wunderground v.1.15,2013-11-18 08:30:00,
2013-11-18 03:35:00,51.0,42.6,29.97,NW,315,0.0,9.0,73,0.00,,,0.00,Wunderground v.1.15,2013-11-18 08:35:00,
2013-11-18 03:40:00,51.1,42.4,29.97,NW,316,1.0,9.0,72,0.00,,,0.00,Wunderground v.1.15,2013-11-18 08:40:00,
2013-11-18 03:45:00,51.1,42.7,29.97,NW,308,1.0,9.0,73,0.00,,,0.00,Wunderground v.1.15,2013-11-18 08:45:00,
2013-11-18 03:50:00,51.1,42.7,29.98,NW,306,1.0,9.0,73,0.00,,,0.00,Wunderground v.1.15,2013-11-18 08:50:00,
2013-11-18 04:05:00,50.6,42.6,29.99,NW,309,2.0,2.0,74,0.00,,,0.00,Wunderground v.1.15,2013-11-18 09:05:00,
2013-11-18 04:10:00,50.5,42.5,29.99,NW,311,2.0,9.0,74,0.00,,,0.00,Wunderground v.1.15,2013-11-18 09:10:00,
2013-11-18 04:15:00,50.3,42.7,30.00,NW,306,2.0,9.0,75,0.00,,,0.00,Wunderground v.1.15,2013-11-18 09:15:00,
2013-11-18 04:20:00,50.1,42.5,30.00,NW,315,2.0,9.0,75,0.00,,,0.00,Wunderground v.1.15,2013-11-18 09:20:00,
2013-11-18 04:30:00,49.7,42.4,30.01,NW,307,3.0,9.0,76,0.00,,,0.00,Wunderground v.1.15,2013-11-18 09:30:00,
2013-11-18 04:40:00,49.2,42.3,30.01,NW,311,2.0,9.0,77,0.00,,,0.00,Wunderground v.1.15,2013-11-18 09:40:00,
2013-11-18 04:45:00,49.0,42.1,30.01,NW,306,2.0,2.0,77,0.00,,,0.00,Wunderground v.1.15,2013-11-18 09:45:00,
2013-11-18 04:50:00,48.9,42.0,30.01,NW,313,2.0,5.0,77,0.00,,,0.00,Wunderground v.1.15,2013-11-18 09:50:00,
2013-11-18 04:55:00,48.9,42.0,30.02,NW,317,3.0,9.0,77,0.00,,,0.00,Wunderground v.1.15,2013-11-18 09:55:00,
2013-11-18 05:00:00,48.7,42.1,30.02,NW,324,2.0,2.0,78,0.00,,,0.00,Wunderground v.1.15,2013-11-18 10:00:00,
2013-11-18 05:05:00,48.5,42.0,30.02,NW,313,1.0,9.0,78,0.00,,,0.00,Wunderground v.1.15,2013-11-18 10:05:00,
2013-11-18 05:10:00,48.3,42.1,30.02,NW,312,0.0,9.0,79,0.00,,,0.00,Wunderground v.1.15,2013-11-18 10:10:00,
2013-11-18 05:15:00,48.3,42.1,30.02,NW,308,1.0,9.0,79,0.00,,,0.00,Wunderground v.1.15,2013-11-18 10:15:00,
2013-11-18 05:20:00,48.2,42.0,30.02,NW,317,1.0,9.0,79,0.00,,,0.00,Wunderground v.1.15,2013-11-18 10:20:00,
2013-11-18 05:25:00,48.0,42.1,30.03,NW,310,0.0,9.0,80,0.00,,,0.00,Wunderground v.1.15,2013-11-18 10:25:00,
2013-11-18 05:35:00,47.6,42.1,30.03,NW,316,1.0,9.0,81,0.00,,,0.00,Wunderground v.1.15,2013-11-18 10:35:00,
2013-11-18 05:40:00,47.5,42.0,30.03,NW,315,1.0,1.0,81,0.00,,,0.00,Wunderground v.1.15,2013-11-18 10:40:00,
2013-11-18 05:45:00,47.3,41.8,30.03,NNW,327,1.0,2.0,81,0.00,,,0.00,Wunderground v.1.15,2013-11-18 10:45:00,
2013-11-18 05:50:00,47.2,41.7,30.04,NW,312,0.0,9.0,81,0.00,,,0.00,Wunderground v.1.15,2013-11-18 10:50:00,
2013-11-18 05:55:00,47.0,41.8,30.04,NW,311,0.0,9.0,82,0.00,,,0.00,Wunderground v.1.15,2013-11-18 10:55:00,
2013-11-18 06:00:00,46.8,41.6,30.04,NW,311,0.0,9.0,82,0.00,,,0.00,Wunderground v.1.15,2013-11-18 11:00:00,
2013-11-18 06:05:00,46.8,41.6,30.04,NW,311,0.0,9.0,82,0.00,,,0.00,Wunderground v.1.15,2013-11-18 11:05:00,
2013-11-18 06:10:00,46.6,41.7,30.04,NW,316,1.0,1.0,83,0.00,,,0.00,Wunderground v.1.15,2013-11-18 11:10:00,
2013-11-18 06:20:00,46.3,41.4,30.04,NW,309,0.0,9.0,83,0.00,,,0.00,Wunderground v.1.15,2013-11-18 11:20:00,
2013-11-18 06:25:00,46.0,41.4,30.04,WNW,298,0.0,9.0,84,0.00,,,0.00,Wunderground v.1.15,2013-11-18 11:25:00,
2013-11-18 06:30:00,45.8,41.2,30.04,NW,306,0.0,9.0,84,0.00,,,0.00,Wunderground v.1.15,2013-11-18 11:30:00,
2013-11-18 06:35:00,45.6,41.4,30.04,NW,306,0.0,9.0,85,0.00,,,0.00,Wunderground v.1.15,2013-11-18 11:35:00,
2013-11-18 06:40:00,45.5,41.3,30.05,NW,306,0.0,9.0,85,0.00,,,0.00,Wunderground v.1.15,2013-11-18 11:40:00,
2013-11-18 06:45:00,45.6,41.4,30.05,NW,306,0.0,9.0,85,0.00,,,0.00,Wunderground v.1.15,2013-11-18 11:45:00,
2013-11-18 06:55:00,45.2,41.0,30.05,NW,310,0.0,9.0,85,0.00,,,0.00,Wunderground v.1.15,2013-11-18 11:55:00,
2013-11-18 07:05:00,44.8,40.9,30.05,NW,315,0.0,9.0,86,0.00,,,0.00,Wunderground v.1.15,2013-11-18 12:05:00,
2013-11-18 07:10:00,44.7,41.1,30.05,NW,313,0.0,9.0,87,0.00,,,0.00,Wunderground v.1.15,2013-11-18 12:10:00,
2013-11-18 07:15:00,44.7,40.8,30.05,NNW,330,1.0,1.0,86,0.00,,,0.00,Wunderground v.1.15,2013-11-18 12:15:00,
2013-11-18 07:20:00,44.5,40.9,30.06,NNW,337,0.0,9.0,87,0.00,,,0.00,Wunderground v.1.15,2013-11-18 12:20:00,
2013-11-18 07:30:00,44.3,40.7,30.05,NW,306,0.0,9.0,87,0.00,,,0.00,Wunderground v.1.15,2013-11-18 12:30:00,
2013-11-18 07:35:00,44.3,40.7,30.06,NNW,329,0.0,9.0,87,0.00,,,0.00,Wunderground v.1.15,2013-11-18 12:35:00,
2013-11-18 07:40:00,44.2,40.6,30.06,NW,316,0.0,9.0,87,0.00,,,0.00,Wunderground v.1.15,2013-11-18 12:40:00,
2013-11-18 07:45:00,44.3,40.7,30.06,NW,317,1.0,1.0,87,0.00,,,0.00,Wunderground v.1.15,2013-11-18 12:45:00,
2013-11-18 07:50:00,44.1,40.5,30.06,NW,324,1.0,9.0,87,0.00,,,0.00,Wunderground v.1.15,2013-11-18 12:50:00,
2013-11-18 07:55:00,44.1,40.5,30.06,NW,324,0.0,9.0,87,0.00,,,0.00,Wunderground v.1.15,2013-11-18 12:55:00,
2013-11-18 08:00:00,44.0,40.4,30.07,NW,304,0.0,9.0,87,0.00,,,0.00,Wunderground v.1.15,2013-11-18 13:00:00,
2013-11-18 08:05:00,44.0,40.4,30.07,NW,304,0.0,9.0,87,0.00,,,0.00,Wunderground v.1.15,2013-11-18 13:05:00,
2013-11-18 08:15:00,44.2,40.6,30.07,NW,321,0.0,9.0,87,0.00,,,0.00,Wunderground v.1.15,2013-11-18 13:15:00,
2013-11-18 08:20:00,44.4,40.8,30.07,NW,313,0.0,9.0,87,0.00,,,0.00,Wunderground v.1.15,2013-11-18 13:20:00,
2013-11-18 08:30:00,44.8,40.9,30.07,NW,313,0.0,9.0,86,0.00,,,0.00,Wunderground v.1.15,2013-11-18 13:30:00,
2013-11-18 08:35:00,44.9,41.0,30.07,WNW,289,0.0,9.0,86,0.00,,,0.00,Wunderground v.1.15,2013-11-18 13:35:00,
2013-11-18 08:45:00,45.2,41.3,30.08,West,259,1.0,9.0,86,0.00,,,0.00,Wunderground v.1.15,2013-11-18 13:45:00,
2013-11-18 08:50:00,45.4,41.2,30.08,WNW,294,1.0,1.0,85,0.00,,,0.00,Wunderground v.1.15,2013-11-18 13:50:00,
2013-11-18 08:55:00,45.7,41.1,30.08,WNW,299,0.0,2.0,84,0.00,,,0.00,Wunderground v.1.15,2013-11-18 13:55:00,
2013-11-18 09:05:00,46.2,41.3,30.09,NW,314,1.0,1.0,83,0.00,,,0.00,Wunderground v.1.15,2013-11-18 14:05:00,
2013-11-18 09:10:00,46.5,41.6,30.09,WNW,299,1.0,9.0,83,0.00,,,0.00,Wunderground v.1.15,2013-11-18 14:10:00,
2013-11-18 09:15:00,46.9,41.7,30.09,WNW,296,0.0,9.0,82,0.00,,,0.00,Wunderground v.1.15,2013-11-18 14:15:00,
2013-11-18 09:20:00,47.3,42.4,30.09,WNW,297,0.0,9.0,83,0.00,,,0.00,Wunderground v.1.15,2013-11-18 14:20:00,
2013-11-18 09:25:00,47.5,41.3,30.09,NW,313,2.0,9.0,79,0.00,,,0.00,Wunderground v.1.15,2013-11-18 14:25:00,
2013-11-18 09:30:00,47.8,41.6,30.09,NW,312,3.0,9.0,79,0.00,,,0.00,Wunderground v.1.15,2013-11-18 14:30:00,
2013-11-18 09:35:00,48.0,41.5,30.10,West,276,2.0,9.0,78,0.00,,,0.00,Wunderground v.1.15,2013-11-18 14:35:00,
2013-11-18 09:40:00,48.2,42.0,30.10,WNW,288,2.0,9.0,79,0.00,,,0.00,Wunderground v.1.15,2013-11-18 14:40:00,
2013-11-18 09:45:00,48.4,41.2,30.10,NW,308,2.0,9.0,76,0.00,,,0.00,Wunderground v.1.15,2013-11-18 14:45:00,
2013-11-18 09:55:00,48.6,41.0,30.10,NW,305,4.0,4.0,75,0.00,,,0.00,Wunderground v.1.15,2013-11-18 14:55:00,
2013-11-18 10:05:00,49.3,41.7,30.11,NW,320,4.0,4.0,75,0.00,,,0.00,Wunderground v.1.15,2013-11-18 15:05:00,
2013-11-18 10:09:00,49.6,42.0,30.11,NW,305,3.0,9.0,75,0.00,,,0.00,Wunderground v.1.15,2013-11-18 15:09:00,
2013-11-18 10:15:00,50.0,42.0,30.11,WNW,300,2.0,2.0,74,0.00,,,0.00,Wunderground v.1.15,2013-11-18 15:15:00,
2013-11-18 10:25:00,51.0,42.3,30.11,NW,306,2.0,9.0,72,0.00,,,0.00,Wunderground v.1.15,2013-11-18 15:25:00,
2013-11-18 10:30:00,50.8,41.7,30.11,WNW,302,4.0,9.0,71,0.00,,,0.00,Wunderground v.1.15,2013-11-18 15:30:00,
2013-11-18 10:34:00,51.0,41.6,30.11,NW,326,5.0,9.0,70,0.00,,,0.00,Wunderground v.1.15,2013-11-18 15:34:00,
2013-11-18 10:40:00,50.8,41.0,30.11,NW,317,7.0,9.0,69,0.00,,,0.00,Wunderground v.1.15,2013-11-18 15:40:00,
2013-11-18 10:45:00,51.3,41.5,30.11,NW,307,7.0,7.0,69,0.00,,,0.00,Wunderground v.1.15,2013-11-18 15:45:00,
2013-11-18 10:50:00,51.5,41.3,30.12,North,355,6.0,9.0,68,0.00,,,0.00,Wunderground v.1.15,2013-11-18 15:50:00,
2013-11-18 10:55:00,51.9,42.4,30.12,NW,304,6.0,6.0,70,0.00,,,0.00,Wunderground v.1.15,2013-11-18 15:55:00,
2013-11-18 11:05:00,51.8,41.6,30.12,WNW,303,7.0,9.0,68,0.00,,,0.00,Wunderground v.1.15,2013-11-18 16:05:00,
2013-11-18 11:10:00,51.9,41.7,30.12,NW,323,7.0,10.0,68,0.00,,,0.00,Wunderground v.1.15,2013-11-18 16:10:00,
2013-11-18 11:20:00,52.4,41.4,30.12,NW,316,6.0,9.0,66,0.00,,,0.00,Wunderground v.1.15,2013-11-18 16:20:00,
2013-11-18 11:25:00,52.4,41.0,30.11,NW,315,6.0,10.0,65,0.00,,,0.00,Wunderground v.1.15,2013-11-18 16:25:00,
2013-11-18 11:30:00,52.1,41.1,30.11,WNW,301,8.0,10.0,66,0.00,,,0.00,Wunderground v.1.15,2013-11-18 16:30:00,
2013-11-18 11:35:00,52.5,41.5,30.11,NW,311,8.0,8.0,66,0.00,,,0.00,Wunderground v.1.15,2013-11-18 16:35:00,
2013-11-18 11:40:00,52.8,42.1,30.11,WNW,283,6.0,10.0,67,0.00,,,0.00,Wunderground v.1.15,2013-11-18 16:40:00,
2013-11-18 11:45:00,52.8,41.4,30.11,NW,322,7.0,11.0,65,0.00,,,0.00,Wunderground v.1.15,2013-11-18 16:45:00,
2013-11-18 11:50:00,52.7,41.7,30.11,WNW,296,8.0,11.0,66,0.00,,,0.00,Wunderground v.1.15,2013-11-18 16:50:00,
2013-11-18 11:55:00,52.8,41.7,30.11,NNW,333,8.0,9.0,66,0.00,,,0.00,Wunderground v.1.15,2013-11-18 16:55:00,
2013-11-18 12:00:00,53.2,41.3,30.10,NW,320,9.0,9.0,64,0.00,,,0.00,Wunderground v.1.15,2013-11-18 17:00:00,
2013-11-18 12:05:00,53.7,42.2,30.11,NW,315,8.0,11.0,65,0.00,,,0.00,Wunderground v.1.15,2013-11-18 17:05:00,
2013-11-18 12:10:00,53.5,41.6,30.11,WNW,298,7.0,7.0,64,0.00,,,0.00,Wunderground v.1.15,2013-11-18 17:10:00,
2013-11-18 12:15:00,53.8,41.5,30.11,WNW,288,8.0,10.0,63,0.00,,,0.00,Wunderground v.1.15,2013-11-18 17:15:00,
2013-11-18 12:20:00,54.2,42.3,30.10,NW,309,7.0,9.0,64,0.00,,,0.00,Wunderground v.1.15,2013-11-18 17:20:00,
2013-11-18 12:25:00,54.0,41.3,30.10,NW,319,8.0,11.0,62,0.00,,,0.00,Wunderground v.1.15,2013-11-18 17:25:00,
2013-11-18 12:30:00,54.1,41.4,30.10,NW,323,9.0,9.0,62,0.00,,,0.00,Wunderground v.1.15,2013-11-18 17:30:00,
2013-11-18 12:35:00,54.6,42.3,30.11,NW,324,8.0,9.0,63,0.00,,,0.00,Wunderground v.1.15,2013-11-18 17:35:00,
2013-11-18 12:45:00,54.8,41.2,30.10,NNW,336,7.0,9.0,60,0.00,,,0.00,Wunderground v.1.15,2013-11-18 17:45:00,
2013-11-18 12:55:00,55.3,41.6,30.10,NNW,336,7.0,10.0,60,0.00,,,0.00,Wunderground v.1.15,2013-11-18 17:55:00,
2013-11-18 13:05:00,55.2,42.4,30.10,NW,313,8.0,10.0,62,0.00,,,0.00,Wunderground v.1.15,2013-11-18 18:05:00,
2013-11-18 13:10:00,54.8,41.2,30.10,NNW,335,9.0,10.0,60,0.00,,,0.00,Wunderground v.1.15,2013-11-18 18:10:00,
2013-11-18 13:15:00,55.3,42.1,30.10,WNW,296,7.0,9.0,61,0.00,,,0.00,Wunderground v.1.15,2013-11-18 18:15:00,
2013-11-18 13:20:00,55.0,40.0,30.10,NW,312,7.0,10.0,57,0.00,,,0.00,Wunderground v.1.15,2013-11-18 18:20:00,
2013-11-18 13:25:00,55.1,41.0,30.10,NW,309,9.0,9.0,59,0.00,,,0.00,Wunderground v.1.15,2013-11-18 18:25:00,
2013-11-18 13:30:00,55.5,42.3,30.10,NW,304,7.0,9.0,61,0.00,,,0.00,Wunderground v.1.15,2013-11-18 18:30:00,
2013-11-18 13:35:00,55.8,42.5,30.11,WNW,301,7.0,9.0,61,0.00,,,0.00,Wunderground v.1.15,2013-11-18 18:35:00,
2013-11-18 13:40:00,55.9,40.9,30.11,West,279,8.0,9.0,57,0.00,,,0.00,Wunderground v.1.15,2013-11-18 18:40:00,
2013-11-18 13:45:00,55.8,40.8,30.11,NW,315,8.0,10.0,57,0.00,,,0.00,Wunderground v.1.15,2013-11-18 18:45:00,
2013-11-18 13:50:00,55.5,40.0,30.11,NW,311,8.0,13.0,56,0.00,,,0.00,Wunderground v.1.15,2013-11-18 18:50:00,
2013-11-18 13:55:00,55.2,40.2,30.11,NW,304,9.0,9.0,57,0.00,,,0.00,Wunderground v.1.15,2013-11-18 18:55:00,
2013-11-18 14:00:00,55.4,40.4,30.11,NW,309,9.0,9.0,57,0.00,,,0.00,Wunderground v.1.15,2013-11-18 19:00:00,
2013-11-18 14:05:00,55.9,40.9,30.11,NNW,329,7.0,9.0,57,0.00,,,0.00,Wunderground v.1.15,2013-11-18 19:05:00,
2013-11-18 14:10:00,55.2,38.8,30.11,WNW,298,8.0,11.0,54,0.00,,,0.00,Wunderground v.1.15,2013-11-18 19:10:00,
2013-11-18 14:20:00,55.3,39.4,30.12,NW,308,8.0,8.0,55,0.00,,,0.00,Wunderground v.1.15,2013-11-18 19:20:00,
2013-11-18 14:25:00,55.4,39.5,30.12,NNW,329,7.0,9.0,55,0.00,,,0.00,Wunderground v.1.15,2013-11-18 19:25:00,
2013-11-18 14:30:00,55.4,39.0,30.11,NW,314,8.0,8.0,54,0.00,,,0.00,Wunderground v.1.15,2013-11-18 19:30:00,
2013-11-18 14:35:00,55.6,37.7,30.12,WNW,283,8.0,9.0,51,0.00,,,0.00,Wunderground v.1.15,2013-11-18 19:35:00,
2013-11-18 14:45:00,55.5,38.1,30.11,NW,304,9.0,11.0,52,0.00,,,0.00,Wunderground v.1.15,2013-11-18 19:45:00,
2013-11-18 14:50:00,55.5,38.1,30.11,West,280,9.0,10.0,52,0.00,,,0.00,Wunderground v.1.15,2013-11-18 19:50:00,
2013-11-18 14:55:00,55.2,37.9,30.11,NW,326,10.0,10.0,52,0.00,,,0.00,Wunderground v.1.15,2013-11-18 19:55:00,
2013-11-18 15:05:00,55.7,37.8,30.11,NW,309,8.0,9.0,51,0.00,,,0.00,Wunderground v.1.15,2013-11-18 20:05:00,
2013-11-18 15:10:00,55.4,36.0,30.11,WNW,298,10.0,12.0,48,0.00,,,0.00,Wunderground v.1.15,2013-11-18 20:10:00,
2013-11-18 15:15:00,55.4,36.0,30.12,WNW,288,10.0,10.0,48,0.00,,,0.00,Wunderground v.1.15,2013-11-18 20:15:00,
2013-11-18 15:20:00,55.4,35.5,30.12,NW,317,10.0,10.0,47,0.00,,,0.00,Wunderground v.1.15,2013-11-18 20:20:00,
2013-11-18 15:25:00,55.6,34.0,30.12,NNW,337,9.0,11.0,44,0.00,,,0.00,Wunderground v.1.15,2013-11-18 20:25:00,
2013-11-18 15:30:00,55.5,33.3,30.12,NNW,327,9.0,11.0,43,0.00,,,0.00,Wunderground v.1.15,2013-11-18 20:30:00,
2013-11-18 15:35:00,55.3,33.2,30.12,NW,315,10.0,10.0,43,0.00,,,0.00,Wunderground v.1.15,2013-11-18 20:35:00,
2013-11-18 15:40:00,55.5,32.8,30.13,NNW,336,9.0,10.0,42,0.00,,,0.00,Wunderground v.1.15,2013-11-18 20:40:00,
2013-11-18 15:45:00,55.3,32.0,30.13,NW,322,8.0,9.0,41,0.00,,,0.00,Wunderground v.1.15,2013-11-18 20:45:00,
2013-11-18 15:50:00,55.2,31.3,30.13,NW,321,8.0,9.0,40,0.00,,,0.00,Wunderground v.1.15,2013-11-18 20:50:00,
2013-11-18 15:55:00,55.1,31.8,30.13,NW,325,9.0,10.0,41,0.00,,,0.00,Wunderground v.1.15,2013-11-18 20:55:00,
2013-11-18 16:05:00,55.1,31.8,30.13,NNW,327,9.0,9.0,41,0.00,,,0.00,Wunderground v.1.15,2013-11-18 21:05:00,
2013-11-18 16:10:00,54.7,31.4,30.13,NW,309,10.0,10.0,41,0.00,,,0.00,Wunderground v.1.15,2013-11-18 21:10:00,
2013-11-18 16:20:00,54.4,31.2,30.14,NW,321,9.0,10.0,41,0.00,,,0.00,Wunderground v.1.15,2013-11-18 21:20:00,
2013-11-18 16:25:00,54.3,31.7,30.14,NW,317,9.0,9.0,42,0.00,,,0.00,Wunderground v.1.15,2013-11-18 21:25:00,
2013-11-18 16:30:00,54.1,32.1,30.14,NNW,334,8.0,9.0,43,0.00,,,0.00,Wunderground v.1.15,2013-11-18 21:30:00,
2013-11-18 16:35:00,54.1,31.5,30.14,NNW,330,7.0,9.0,42,0.00,,,0.00,Wunderground v.1.15,2013-11-18 21:35:00,
2013-11-18 16:40:00,54.0,32.0,30.15,NNW,336,7.0,9.0,43,0.00,,,0.00,Wunderground v.1.15,2013-11-18 21:40:00,
2013-11-18 16:50:00,53.8,32.4,30.15,NNW,331,5.0,7.0,44,0.00,,,0.00,Wunderground v.1.15,2013-11-18 21:50:00,
2013-11-18 16:55:00,53.5,32.7,30.15,NNW,328,6.0,9.0,45,0.00,,,0.00,Wunderground v.1.15,2013-11-18 21:55:00,
2013-11-18 17:05:00,53.0,32.2,30.15,NNW,337,4.0,9.0,45,0.00,,,0.00,Wunderground v.1.15,2013-11-18 22:05:00,
2013-11-18 17:15:00,52.1,32.5,30.16,NW,304,2.0,2.0,47,0.00,,,0.00,Wunderground v.1.15,2013-11-18 22:15:00,
2013-11-18 17:20:00,51.7,32.1,30.16,NW,315,2.0,3.0,47,0.00,,,0.00,Wunderground v.1.15,2013-11-18 22:20:00,
2013-11-18 17:25:00,51.3,32.8,30.16,NW,323,2.0,2.0,49,0.00,,,0.00,Wunderground v.1.15,2013-11-18 22:25:00,
2013-11-18 17:30:00,51.0,33.0,30.17,NW,306,1.0,9.0,50,0.00,,,0.00,Wunderground v.1.15,2013-11-18 22:30:00,
2013-11-18 17:35:00,50.8,32.8,30.17,NNW,331,2.0,9.0,50,0.00,,,0.00,Wunderground v.1.15,2013-11-18 22:35:00,
2013-11-18 17:40:00,50.5,32.5,30.17,NW,320,6.0,9.0,50,0.00,,,0.00,Wunderground v.1.15,2013-11-18 22:40:00,
2013-11-18 17:45:00,50.2,32.3,30.17,NW,322,6.0,9.0,50,0.00,,,0.00,Wunderground v.1.15,2013-11-18 22:45:00,
2013-11-18 17:50:00,50.0,32.6,30.17,NNW,328,7.0,9.0,51,0.00,,,0.00,Wunderground v.1.15,2013-11-18 22:50:00,
2013-11-18 17:55:00,49.8,32.4,30.17,North,9,6.0,9.0,51,0.00,,,0.00,Wunderground v.1.15,2013-11-18 22:55:00,
2013-11-18 18:05:00,49.5,32.6,30.18,NW,319,6.0,6.0,52,0.00,,,0.00,Wunderground v.1.15,2013-11-18 23:05:00,
2013-11-18 18:10:00,49.3,32.4,30.18,NNW,336,5.0,9.0,52,0.00,,,0.00,Wunderground v.1.15,2013-11-18 23:10:00,
2013-11-18 18:20:00,48.9,32.5,30.18,NNW,329,4.0,9.0,53,0.00,,,0.00,Wunderground v.1.15,2013-11-18 23:20:00,
2013-11-18 18:25:00,48.9,32.5,30.18,NW,326,5.0,9.0,53,0.00,,,0.00,Wunderground v.1.15,2013-11-18 23:25:00,
2013-11-18 18:30:00,48.8,32.9,30.19,NW,321,5.0,9.0,54,0.00,,,0.00,Wunderground v.1.15,2013-11-18 23:30:00,
2013-11-18 18:35:00,48.6,32.7,30.19,NW,323,5.0,5.0,54,0.00,,,0.00,Wunderground v.1.15,2013-11-18 23:35:00,
2013-11-18 18:40:00,48.6,32.7,30.19,NW,321,5.0,6.0,54,0.00,,,0.00,Wunderground v.1.15,2013-11-18 23:40:00,
2013-11-18 18:45:00,48.4,33.0,30.19,NNW,333,5.0,9.0,55,0.00,,,0.00,Wunderground v.1.15,2013-11-18 23:45:00,
2013-11-18 18:50:00,48.2,32.8,30.19,NW,321,5.0,9.0,55,0.00,,,0.00,Wunderground v.1.15,2013-11-18 23:50:00,
2013-11-18 18:55:00,48.1,33.1,30.19,NNW,328,5.0,5.0,56,0.00,,,0.00,Wunderground v.1.15,2013-11-18 23:55:00,
2013-11-18 19:05:00,47.7,32.8,30.20,NW,315,5.0,5.0,56,0.00,,,0.00,Wunderground v.1.15,2013-11-19 00:05:00,
2013-11-18 19:10:00,47.5,33.0,30.20,NW,315,4.0,9.0,57,0.00,,,0.00,Wunderground v.1.15,2013-11-19 00:10:00,
2013-11-18 19:15:00,47.3,32.8,30.20,NW,326,4.0,9.0,57,0.00,,,0.00,Wunderground v.1.15,2013-11-19 00:15:00,
2013-11-18 19:20:00,47.3,32.8,30.20,NW,325,4.0,9.0,57,0.00,,,0.00,Wunderground v.1.15,2013-11-19 00:20:00,
2013-11-18 19:25:00,47.0,33.0,30.21,NW,322,3.0,3.0,58,0.00,,,0.00,Wunderground v.1.15,2013-11-19 00:25:00,
2013-11-18 19:35:00,46.5,32.9,30.21,NW,313,2.0,2.0,59,0.00,,,0.00,Wunderground v.1.15,2013-11-19 00:35:00,
2013-11-18 19:40:00,46.3,33.2,30.21,NW,324,1.0,3.0,60,0.00,,,0.00,Wunderground v.1.15,2013-11-19 00:40:00,
2013-11-18 19:45:00,46.1,33.0,30.21,NW,323,1.0,9.0,60,0.00,,,0.00,Wunderground v.1.15,2013-11-19 00:45:00,
2013-11-18 19:50:00,46.1,33.0,30.21,NW,320,1.0,9.0,60,0.00,,,0.00,Wunderground v.1.15,2013-11-19 00:50:00,
2013-11-18 19:55:00,46.0,32.9,30.21,NW,326,1.0,9.0,60,0.00,,,0.00,Wunderground v.1.15,2013-11-19 00:55:00,
2013-11-18 20:00:00,46.0,32.9,30.21,NNW,333,1.0,9.0,60,0.00,,,0.00,Wunderground v.1.15,2013-11-19 01:00:00,
2013-11-18 20:04:00,45.9,32.8,30.21,NW,324,1.0,9.0,60,0.00,,,0.00,Wunderground v.1.15,2013-11-19 01:04:00,
2013-11-18 20:10:00,45.7,33.0,30.21,NW,325,2.0,9.0,61,0.00,,,0.00,Wunderground v.1.15,2013-11-19 01:10:00,
2013-11-18 20:15:00,45.5,32.8,30.21,NW,315,2.0,2.0,61,0.00,,,0.00,Wunderground v.1.15,2013-11-19 01:15:00,
2013-11-18 20:25:00,45.0,32.8,30.22,NNW,333,1.0,9.0,62,0.00,,,0.00,Wunderground v.1.15,2013-11-19 01:25:00,
2013-11-18 20:30:00,45.0,32.8,30.22,NNW,329,1.0,9.0,62,0.00,,,0.00,Wunderground v.1.15,2013-11-19 01:30:00,
2013-11-18 20:35:00,44.9,32.7,30.22,NNE,17,1.0,9.0,62,0.00,,,0.00,Wunderground v.1.15,2013-11-19 01:35:00,
2013-11-18 20:40:00,44.8,32.2,30.23,NNW,327,2.0,9.0,61,0.00,,,0.00,Wunderground v.1.15,2013-11-19 01:40:00,
2013-11-18 20:45:00,44.6,32.0,30.23,NNW,333,1.0,9.0,61,0.00,,,0.00,Wunderground v.1.15,2013-11-19 01:45:00,
2013-11-18 20:50:00,44.5,31.9,30.23,NNW,328,1.0,9.0,61,0.00,,,0.00,Wunderground v.1.15,2013-11-19 01:50:00,
2013-11-18 20:55:00,44.4,31.8,30.23,NNW,328,1.0,1.0,61,0.00,,,0.00,Wunderground v.1.15,2013-11-19 01:55:00,
2013-11-18 21:00:00,44.3,31.7,30.23,NW,325,2.0,2.0,61,0.00,,,0.00,Wunderground v.1.15,2013-11-19 02:00:00,
2013-11-18 21:10:00,44.1,31.5,30.23,NNW,332,1.0,9.0,61,0.00,,,0.00,Wunderground v.1.15,2013-11-19 02:10:00,
2013-11-18 21:15:00,44.1,31.1,30.24,NNW,331,2.0,2.0,60,0.00,,,0.00,Wunderground v.1.15,2013-11-19 02:15:00,
2013-11-18 21:20:00,44.3,30.9,30.24,NNW,328,3.0,3.0,59,0.00,,,0.00,Wunderground v.1.15,2013-11-19 02:20:00,
2013-11-18 21:25:00,44.1,30.7,30.24,North,360,2.0,2.0,59,0.00,,,0.00,Wunderground v.1.15,2013-11-19 02:25:00,
2013-11-18 21:35:00,44.0,30.6,30.24,North,355,2.0,9.0,59,0.00,,,0.00,Wunderground v.1.15,2013-11-19 02:35:00,
2013-11-18 21:40:00,44.0,30.6,30.25,NNW,338,3.0,9.0,59,0.00,,,0.00,Wunderground v.1.15,2013-11-19 02:40:00,
2013-11-18 21:45:00,43.9,30.5,30.25,WNW,301,3.0,9.0,59,0.00,,,0.00,Wunderground v.1.15,2013-11-19 02:45:00,
2013-11-18 21:50:00,43.7,30.3,30.25,NNW,344,2.0,9.0,59,0.00,,,0.00,Wunderground v.1.15,2013-11-19 02:50:00,
2013-11-18 21:55:00,43.6,30.2,30.25,NW,326,2.0,2.0,59,0.00,,,0.00,Wunderground v.1.15,2013-11-19 02:55:00,
2013-11-18 22:05:00,43.2,30.2,30.25,NNW,335,2.0,9.0,60,0.00,,,0.00,Wunderground v.1.15,2013-11-19 03:05:00,
2013-11-18 22:10:00,43.3,30.3,30.26,NNW,330,2.0,9.0,60,0.00,,,0.00,Wunderground v.1.15,2013-11-19 03:10:00,
2013-11-18 22:15:00,43.3,30.3,30.26,NNW,341,4.0,4.0,60,0.00,,,0.00,Wunderground v.1.15,2013-11-19 03:15:00,
2013-11-18 22:20:00,43.2,30.2,30.26,NNW,344,4.0,9.0,60,0.00,,,0.00,Wunderground v.1.15,2013-11-19 03:20:00,
2013-11-18 22:25:00,43.2,30.2,30.26,NNW,332,3.0,9.0,60,0.00,,,0.00,Wunderground v.1.15,2013-11-19 03:25:00,
2013-11-18 22:30:00,43.1,30.1,30.26,North,355,2.0,9.0,60,0.00,,,0.00,Wunderground v.1.15,2013-11-19 03:30:00,
2013-11-18 22:35:00,43.1,30.1,30.26,NNW,329,2.0,2.0,60,0.00,,,0.00,Wunderground v.1.15,2013-11-19 03:35:00,
2013-11-18 22:40:00,42.9,30.0,30.26,NNW,333,1.0,4.0,60,0.00,,,0.00,Wunderground v.1.15,2013-11-19 03:40:00,
2013-11-18 22:45:00,42.8,29.9,30.26,NW,325,2.0,2.0,60,0.00,,,0.00,Wunderground v.1.15,2013-11-19 03:45:00,
2013-11-18 22:50:00,42.6,30.1,30.26,NNW,336,3.0,4.0,61,0.00,,,0.00,Wunderground v.1.15,2013-11-19 03:50:00,
2013-11-18 23:05:00,42.1,30.0,30.27,NNW,338,3.0,9.0,62,0.00,,,0.00,Wunderground v.1.15,2013-11-19 04:05:00,
2013-11-18 23:10:00,42.0,29.9,30.27,NNW,342,3.0,9.0,62,0.00,,,0.00,Wunderground v.1.15,2013-11-19 04:10:00,
2013-11-18 23:15:00,41.8,29.7,30.27,NW,325,3.0,9.0,62,0.00,,,0.00,Wunderground v.1.15,2013-11-19 04:15:00,
2013-11-18 23:20:00,41.6,29.9,30.27,North,350,3.0,9.0,63,0.00,,,0.00,Wunderground v.1.15,2013-11-19 04:20:00,
2013-11-18 23:25:00,41.4,29.7,30.27,NNW,337,4.0,9.0,63,0.00,,,0.00,Wunderground v.1.15,2013-11-19 04:25:00,
2013-11-18 23:30:00,41.2,29.9,30.27,NNW,340,4.0,9.0,64,0.00,,,0.00,Wunderground v.1.15,2013-11-19 04:30:00,
2013-11-18 23:40:00,40.8,29.6,30.27,NNW,329,4.0,9.0,64,0.00,,,0.00,Wunderground v.1.15,2013-11-19 04:40:00,
2013-11-18 23:45:00,40.7,29.5,30.27,NNE,13,3.0,3.0,64,0.00,,,0.00,Wunderground v.1.15,2013-11-19 04:45:00,
2013-11-18 23:50:00,40.5,29.3,30.27,NNW,340,2.0,9.0,64,0.00,,,0.00,Wunderground v.1.15,2013-11-19 04:50:00,
2013-11-18 23:55:00,40.5,29.3,30.27,NNW,347,2.0,2.0,64,0.00,,,0.00,Wunderground v.1.15,2013-11-19 04:55:00,